Other Public Products
Issued by NWS Grand Forks, ND

Home | Current Version | Previous Version | Text Only | Print | Product List | Glossary On
Versions: 1 2 3 4 5 6 7 8 9 10 11 12 13 14 15 16 17 18 19 20 21 22 23 24 25 26 27 28 29 30 31 32 33 34 35 36 37 38 39 40 41 42 43 44 45 46 47 48 49 50
472
FPUS83 KFGF 222231
OPUFGF
PRAIRIE TO PINES WEATHER ROUNDUP
NATIONAL WEATHER SERVICE EASTERN NORTH DAKOTA/GRAND FORKS ND
400 PM CST WED NOV 22 2017

 **SATELLITE DATA USED TO AUGMENT SKY COVER AT AUTOMATED STATIONS**
 *****  WEATHER ACROSS EASTERN NORTH DAKOTA  *****

CITY           SKY/WX    TMP DP  RH WIND       PRES   REMARKS
GRAND FORKS    CLOUDY    28  19  69 S14       29.90R WCI  17
GRND FORKS AFB CLOUDY    28  18  66 S10       29.89R WCI  18
GRND FORKS NWS   N/A     27 N/A N/A S10         N/A  WCI  17
BUXTON           N/A     28  17  62 SE13        N/A  WCI  18
DEVILS LAKE    MOCLDY    30  21  69 CALM      29.87R
FARGO          CLOUDY    32  16  51 S14       29.90R WCI  22
WAHPETON ARPT  NOT AVBL
$$

 *****  WEATHER ACROSS CENTRAL AND WESTERN NORTH DAKOTA  *****

CITY           SKY/WX    TMP DP  RH WIND       PRES   REMARKS
JAMESTOWN      FAIR      45  27  49 NW14      29.82R
BISMARCK       FAIR      62  39  42 NW21G30   29.85R
MINOT          FAIR      39  25  57 NW13      29.88R
MINOT AFB      FAIR      36  24  61 N12       29.87R
GARRISON         N/A     46  34  62 N9        29.87R
WILLISTON      FAIR      47  31  53 NW13      29.92R
DICKINSON      FAIR      58  37  45 NW23      29.88R
HETTINGER      FAIR      63  38  39 NW28G37   29.93R
$$

 *****  OTHER OBSERVATIONS NORTHEAST NORTH DAKOTA  *****

CITY           SKY/WX    TMP DP  RH WIND       PRES   REMARKS
WALHALLA       FAIR      23  23 100 SE6       29.93R WCI  16
LANGDON        CLOUDY    27  25  93 NW7       29.90R FOG     WCI  19
CAVALIER       CLOUDY    23  19  86 CALM      29.94R
GRAFTON        CLOUDY    25  21  86 E6        29.95R WCI  18
CANDO          CLOUDY    30  21  69 N10G17    29.92R WCI  21
FORT TOTTEN      N/A     36  21  55 CALM      29.95S
ROLLA          CLOUDY    25  21  86 N14       29.88R WCI  13
RUGBY          FAIR      30  21  69 N10       29.89R WCI  21
 ***** THE ABOVE OBSERVATIONS ARE NON NWS ARE NOT QUALITY
        CONTROLLED AND MAY MIS-REPORT RAIN FOR SNOW...
$$

 *****  OTHER OBSERVATIONS SOUTHEAST NORTH DAKOTA *****

CITY           SKY/WX    TMP DP  RH WIND       PRES   REMARKS
COOPERSTOWN    FAIR      34  19  55 SE6       29.86R
VALLEY CITY    FAIR      36  19  51 S9        29.86R
OAKES            N/A     36  19  51 SW13      29.86S
GWINNER          N/A     36  19  51 SW12      29.87S
SHEYENNE NWR     N/A     40  19  42 SW12      29.95S
BUFFALO          N/A     32  14  46 E9          N/A  WCI  25
WYNDMERE       NOT AVBL
 ***** THE ABOVE OBSERVATIONS ARE NON NWS ARE NOT QUALITY
       CONTROLLED AND MAY MIS-REPORT RAIN FOR SNOW...
$$

  *****  WEATHER ACROSS NORTHERN MINNESOTA  *****

CITY           SKY/WX    TMP DP  RH WIND       PRES   REMARKS
FLAG ISLAND    MIX PCPN  19  16  86 S12       29.93F WCI   7
WARROAD        CLOUDY    21  18  86 S6        29.94F FOG     WCI  14
ROSEAU         CLOUDY    21  18  86 S6        29.95R WCI  14
HALLOCK        CLOUDY    23  19  86 S9        29.94S WCI  13
THF RVR FALLS  CLOUDY    23  16  74 SE9       29.93R WCI  13
HALSTAD          N/A     29  16  56 S14         N/A  WCI  19
FOSSTON        CLOUDY    21  16  79 S9        29.91S WCI  11
BAUDETTE       CLOUDY    19  14  81 S9        29.94F WCI   8
WASKISH        LGT SNOW  19  18  93 SE6       29.94F WCI  11
CROOKSTON      CLOUDY    28  16  59 S10       29.94R WCI  19
$$
  *****  WEATHER ACROSS CENTRAL AND WEST MINNESOTA  *****

CITY           SKY/WX    TMP DP  RH WIND       PRES   REMARKS
BEMIDJI        CLOUDY    20  16  86 SE10      29.91F WCI   9
PARK RAPIDS    FLURRIES  21  16  81 SE13      29.94F WCI   9
WADENA         CLOUDY    25  14  63 SE10      29.94F WCI  15
DETROIT LAKES  MOCLDY    28  16  59 S12       29.92R WCI  18
MOORHEAD       CLOUDY    30  14  51 S17       29.91F WCI  18
FERGUS FALLS   CLOUDY    28  16  59 SE15      29.96R WCI  17
ELBOW LAKE     CLOUDY    30  16  54 E14       29.94S HAZE    WCI  20
MORRIS MN      FAIR      34  16  47 SE15G21   29.92S WCI  24
STAPLES        CLOUDY    23  12  63 S9        29.97F WCI  13
WHEATON        FAIR      36  16  44 SE10      29.93R
$$
  *****  WEATHER ELSEWHERE ACROSS MINNESOTA  *****

CITY           SKY/WX    TMP DP  RH WIND       PRES   REMARKS
DULUTH         FLURRIES  20  14  77 SW9       30.03F WCI   9
INTRNTL FALLS  CLOUDY    19  14  81 VRB5      29.98S WCI  12
ELY            LGT SNOW  18  16  93 SW6       30.00F WCI   9
CLOQUET        LGT SNOW  19  14  79 S9        30.02F WCI   9
BRAINERD       LGT SNOW  21  17  84 S8        30.00F FOG     WCI  11
HIBBING        FLURRIES  19  15  84 VRB6      29.99F WCI  11
ALEXANDRIA     CLOUDY    27  15  61 SE15      29.96F WCI  15
SAINT CLOUD    CLOUDY    26  14  60 SE15      30.02F WCI  14
MINNEAPOLIS    CLOUDY    29  14  53 S8        30.11F WCI  21
$$

  *****  WEATHER ACROSS SOUTH DAKOTA  *****

CITY           SKY/WX    TMP DP  RH WIND       PRES   REMARKS
SIOUX FALLS    MOCLDY    39  19  44 S18       30.01F
BROOKINGS      CLOUDY    34  18  52 S18G25    29.94F WCI  23
WATERTOWN      FAIR      34  19  54 S15G26    29.89F WCI  24
HURON          FAIR      41  22  46 S6        29.93S
SISSETON         N/A     41  21  44 SW10      29.88R
ABERDEEN       FAIR      37  22  54 S13       29.89F
MITCHELL       FAIR      46  24  42 S14       29.95F
PIERRE         FAIR      59  34  39 W3        29.90R
MOBRIDGE       FAIR      51  31  46 SE7       29.84R
RAPID CITY     FAIR      68  36  30 NW18      30.00R
$$

  *****  SOME WEATHER IN NEARBY STATES *****

CITY           SKY/WX    TMP DP  RH WIND       PRES   REMARKS
GLASGOW MT     FAIR      47  36  65 N9        29.93S
GREAT FALLS MT FAIR      59  41  51 SW26G38   30.03F
CHEYENNE WY    CLOUDY    58  38  47 NW20G31   30.25R
SCOTTSBLUFF NE FAIR      67  38  34 W17       30.11R
OMAHA NE       MOCLDY    41  16  36 S16       30.16S
DES MOINES IA  CLOUDY    38  13  35 S12       30.19F
DAVENPORT IA   FAIR      32  16  51 SW7       30.26F
CHICAGO IL     CLOUDY    33  15  47 W6        30.25F
EAU CLAIRE WI  LGT SNOW  24  16  71 S9        30.14F WCI  14
LA CROSSE WI   CLOUDY    31  14  49 S6        30.19F
$$

  *****  SOME NATIONAL WEATHER *****

CITY           SKY/WX    TMP DP  RH WIND       PRES   REMARKS
LA GUARDIA NY  MOCLDY    46  31  55 NW25G32   29.96R
RALEIGH NC     MOCLDY    57  28  33 VRB3      30.04R
ATLANTA GA     MOCLDY    58  38  47 NW12      30.05R
NEW ORLEANS LA FAIR      67  48  50 N12       30.06R
OKLAHOMA CITY  FAIR      49  14  24 CALM      30.28F
ALBUQUERQUE NM PTSUNNY   61  27  27 CALM      30.32F
SALT LAKE CITY PTSUNNY   68  41  37 CALM      30.38F
LOS ANGELES CA FAIR      85  47  26 W8        29.98F
BOISE ID       FAIR      62  51  67 SE6       30.26F
SEATTLE WA     PTSUNNY   66  59  78 S8        29.93F
$$

*** WEATHER ACROSS MANITOBA...SASKATCHEWAN AND ONTARIO ***
                ***ONTARIO***

CITY           SKY/WX    TMP DP  RH WIND       PRES   REMARKS
GERALDTON      MOCLDY    16  14  93 SW2       29.95F
THUNDER BAY    CLOUDY    25  14  63 W8        30.05R WCI  16
SIOUX LOOKOUT  FLURRIES  18  12  79 SW10      29.91F WCI   6
TORONTO        MOCLDY    28  14  54 NW16G24   30.21R WCI  17
BIG TROUT LK   CLOUDY    12   7  79 W12G17    29.79S WCI  -2
PICKLE LAKE    FLURRIES  14   9  79 SW9       29.84F WCI   2
DRYDEN         CLOUDY    16  12  86 SW9       29.92S WCI   4
KENORA         FLURRIES  16  14  93 S13       29.90F WCI   2
$$
                *** MANITOBA***

CITY           SKY/WX    TMP DP  RH WIND       PRES   REMARKS
BRANDON        MOCLDY    21  14  73 NW12      29.92R WCI   9
DAUPHIN        CLOUDY    19  12  73 W12       29.92R WCI   7
ISLAND LAKE    FLURRIES  14   7  73 SW9       29.78F WCI   2
PILOT MOUND      N/A     25  21  86 NW7         N/A  WCI  17
THE PAS        PTCLDY     9   1  72 W9        29.85F WCI  -5
THOMPSON       FLURRIES   9   3  78 W9        29.77R WCI  -5
WINNIPEG       CLOUDY    19  16  86 S14       29.94R WCI   6
LYNN LAKE      FLURRIES   9   3  78 W10G21    29.75S WCI  -6
CHURCHILL      CRYSTALS   9   3  78 NW16      29.66R WCI  -9
GILLAM         LGT SNOW  12   7  79 W13G21    29.69  WCI  -3
$$
                ***SASKATCHEWAN***

CITY           SKY/WX    TMP DP  RH WIND       PRES   REMARKS
ESTEVAN        MOCLDY    28  21  74 NW13      29.93R WCI  18
KINDERSLEY     MOCLDY    18  12  79 W10       29.90R WCI   6
LLOYDMINSTER   CLOUDY    16  10  79 SW5       29.84F WCI   9
PRINCE ALBERT  MOCLDY    18   5  57 W6        29.92R WCI   9
REGINA         CLOUDY    21  18  86 NW9       29.94R WCI  11
YORKTON        CLOUDY    19  12  73 W6        29.91R WC



USA.gov is the U.S. government's official web portal to all federal, state and local government web resources and services.